TimeCST,TemperatureF,Dew PointF,Humidity,Sea Level PressureIn,VisibilityMPH,Wind Direction,Wind SpeedMPH,Gust SpeedMPH,PrecipitationIn,Events,Conditions,WindDirDegrees,DateUTC
12:15 AM,-11.2,-16.6,77,30.01,10.0,Calm,Calm,-,N/A,,Mostly Cloudy,0,2013-02-04 06:15:00
12:35 AM,-11.2,-16.6,77,30.01,10.0,Calm,Calm,-,N/A,,Mostly Cloudy,0,2013-02-04 06:35:00
12:55 AM,-14.8,-18.4,84,30.00,10.0,Calm,Calm,-,N/A,,Overcast,0,2013-02-04 06:55:00
1:15 AM,-14.8,-18.4,84,30.01,10.0,Calm,Calm,-,N/A,,Overcast,0,2013-02-04 07:15:00
1:35 AM,-14.8,-20.2,77,30.00,10.0,Calm,Calm,-,N/A,,Overcast,0,2013-02-04 07:35:00
1:55 AM,-16.6,-23.8,70,30.01,10.0,Calm,Calm,-,N/A,,Scattered Clouds,0,2013-02-04 07:55:00
2:15 AM,-18.4,-25.6,70,30.01,10.0,Calm,Calm,-,N/A,,Mostly Cloudy,0,2013-02-04 08:15:00
2:35 AM,-16.6,-23.8,70,30.02,10.0,Calm,Calm,-,N/A,,Overcast,0,2013-02-04 08:35:00
2:55 AM,-16.6,-20.2,84,30.01,10.0,Calm,Calm,-,N/A,,Overcast,0,2013-02-04 08:55:00
3:15 AM,-16.6,-22.0,76,30.01,10.0,Calm,Calm,-,N/A,,Overcast,0,2013-02-04 09:15:00
4:55 AM,-11.2,-16.6,77,30.01,10.0,Calm,Calm,-,N/A,,Overcast,0,2013-02-04 10:55:00
5:15 AM,-9.4,-14.8,77,30.01,10.0,Calm,Calm,-,N/A,,Overcast,0,2013-02-04 11:15:00
5:35 AM,-7.6,-13.0,77,30.00,10.0,Calm,Calm,-,N/A,,Overcast,0,2013-02-04 11:35:00
5:55 AM,-7.6,-11.2,84,30.00,10.0,Calm,Calm,-,N/A,,Overcast,0,2013-02-04 11:55:00
6:15 AM,-7.6,-11.2,84,29.99,10.0,Calm,Calm,-,N/A,,Overcast,0,2013-02-04 12:15:00
6:35 AM,-7.6,-11.2,84,29.99,10.0,Calm,Calm,-,N/A,,Overcast,0,2013-02-04 12:35:00
6:55 AM,-5.8,-9.4,84,29.99,10.0,Calm,Calm,-,N/A,,Overcast,0,2013-02-04 12:55:00
7:15 AM,-5.8,-9.4,84,29.99,10.0,Calm,Calm,-,N/A,,Overcast,0,2013-02-04 13:15:00
7:35 AM,-5.8,-9.4,84,29.99,10.0,Calm,Calm,-,N/A,,Overcast,0,2013-02-04 13:35:00
7:55 AM,-5.8,-9.4,84,29.99,10.0,SSW,5.8,-,N/A,,Overcast,200,2013-02-04 13:55:00
8:15 AM,-4.0,-9.4,78,29.98,10.0,South,5.8,-,N/A,,Overcast,180,2013-02-04 14:15:00
8:35 AM,-4.0,-7.6,85,29.98,10.0,South,6.9,-,N/A,,Overcast,180,2013-02-04 14:35:00
8:55 AM,-2.2,-7.6,78,29.98,10.0,South,6.9,-,N/A,,Overcast,180,2013-02-04 14:55:00
9:15 AM,-0.4,-5.8,78,29.96,10.0,South,8.1,-,N/A,,Overcast,170,2013-02-04 15:15:00
9:35 AM,-0.4,-5.8,78,29.97,10.0,Calm,Calm,-,N/A,,Overcast,0,2013-02-04 15:35:00
9:55 AM,1.4,-5.8,72,29.97,10.0,SSW,6.9,-,N/A,,Overcast,210,2013-02-04 15:55:00
10:15 AM,1.4,-5.8,72,29.95,10.0,SSW,10.4,-,N/A,,Overcast,200,2013-02-04 16:15:00
10:35 AM,1.4,-5.8,72,29.94,10.0,South,10.4,-,N/A,,Overcast,180,2013-02-04 16:35:00
10:55 AM,1.4,-5.8,72,29.92,10.0,South,11.5,-,N/A,,Overcast,180,2013-02-04 16:55:00
11:15 AM,3.2,-5.8,66,29.92,10.0,South,12.7,-,N/A,,Overcast,170,2013-02-04 17:15:00
11:35 AM,3.2,-5.8,66,29.90,10.0,South,15.0,-,N/A,,Overcast,170,2013-02-04 17:35:00
11:55 AM,3.2,-5.8,66,29.90,10.0,SSW,12.7,-,N/A,,Overcast,200,2013-02-04 17:55:00
12:15 PM,6.8,-0.4,72,29.92,10.0,SSW,13.8,-,N/A,,Scattered Clouds,210,2013-02-04 18:15:00
12:35 PM,8.6,-0.4,67,29.91,10.0,SSW,15.0,-,N/A,,Clear,200,2013-02-04 18:35:00
12:55 PM,8.6,-4.0,57,29.89,10.0,SSW,12.7,-,N/A,,Clear,200,2013-02-04 18:55:00
1:15 PM,6.8,-4.0,61,29.87,10.0,South,17.3,20.7,N/A,,Clear,190,2013-02-04 19:15:00
1:35 PM,8.6,-2.2,62,29.86,10.0,South,17.3,-,N/A,,Clear,180,2013-02-04 19:35:00
1:55 PM,8.6,-4.0,57,29.85,10.0,South,17.3,-,N/A,,Clear,190,2013-02-04 19:55:00
2:35 PM,8.6,-2.2,62,29.83,10.0,South,10.4,-,N/A,,Scattered Clouds,180,2013-02-04 20:35:00
2:55 PM,8.6,-0.4,67,29.82,10.0,South,13.8,-,N/A,,Scattered Clouds,190,2013-02-04 20:55:00
3:15 PM,8.6,-0.4,67,29.81,10.0,South,16.1,-,N/A,,Scattered Clouds,180,2013-02-04 21:15:00
3:35 PM,8.6,-0.4,67,29.80,10.0,South,16.1,-,N/A,,Clear,190,2013-02-04 21:35:00
3:55 PM,8.6,-0.4,67,29.79,10.0,South,16.1,-,N/A,,Scattered Clouds,190,2013-02-04 21:55:00
4:15 PM,8.6,1.4,73,29.76,10.0,South,17.3,-,N/A,,Scattered Clouds,180,2013-02-04 22:15:00
4:35 PM,8.6,1.4,73,29.74,10.0,South,16.1,-,N/A,,Mostly Cloudy,170,2013-02-04 22:35:00
4:55 PM,10.4,1.4,67,29.71,10.0,South,16.1,-,N/A,,Overcast,170,2013-02-04 22:55:00
5:15 PM,10.4,3.2,73,29.70,4.0,South,13.8,-,N/A,Snow,Light Snow,170,2013-02-04 23:15:00
5:35 PM,10.4,6.8,85,29.69,2.0,South,17.3,-,N/A,Snow,Light Snow,180,2013-02-04 23:35:00
5:55 PM,10.4,6.8,85,29.69,1.5,South,16.1,-,N/A,Snow,Light Snow,170,2013-02-04 23:55:00
6:15 PM,10.4,6.8,85,29.69,1.2,South,17.3,-,N/A,Snow,Light Snow,180,2013-02-05 00:15:00
6:35 PM,10.4,6.8,85,29.66,1.8,South,17.3,-,N/A,Snow,Light Snow,170,2013-02-05 00:35:00
6:55 PM,10.4,6.8,85,29.64,1.5,South,18.4,-,N/A,Snow,Light Snow,170,2013-02-05 00:55:00
7:15 PM,10.4,6.8,85,29.62,0.8,South,19.6,26.5,N/A,Snow,Snow,170,2013-02-05 01:15:00
7:35 PM,10.4,8.6,92,29.62,1.0,South,16.1,-,N/A,Snow,Snow,170,2013-02-05 01:35:00
7:55 PM,10.4,8.6,92,29.61,0.8,South,16.1,-,N/A,Snow,Snow,170,2013-02-05 01:55:00
8:15 PM,12.2,10.4,92,29.59,1.0,South,17.3,-,N/A,Snow,Light Snow,180,2013-02-05 02:15:00
8:35 PM,12.2,10.4,92,29.59,0.8,South,19.6,25.3,N/A,Snow,Snow,190,2013-02-05 02:35:00
8:55 PM,12.2,10.4,92,29.58,1.2,South,20.7,27.6,N/A,Snow,Light Snow,190,2013-02-05 02:55:00
9:15 PM,12.2,10.4,92,29.57,1.8,South,21.9,27.6,N/A,Snow,Light Snow,190,2013-02-05 03:15:00
9:35 PM,12.2,10.4,92,29.57,3.0,SSW,19.6,-,N/A,,Overcast,200,2013-02-05 03:35:00
9:55 PM,12.2,10.4,92,29.55,3.0,South,21.9,26.5,N/A,,Overcast,190,2013-02-05 03:55:00
10:15 PM,12.2,10.4,92,29.54,4.0,South,19.6,-,N/A,,Overcast,190,2013-02-05 04:15:00
10:35 PM,12.2,10.4,92,29.53,3.0,South,21.9,-,N/A,,Overcast,190,2013-02-05 04:35:00
10:55 PM,14.0,12.2,93,29.53,5.0,South,17.3,-,N/A,,Overcast,190,2013-02-05 04:55:00
11:15 PM,15.8,12.2,86,29.52,7.0,South,16.1,-,N/A,,Overcast,190,2013-02-05 05:15:00
11:35 PM,15.8,15.8,100,29.52,10.0,SSW,13.8,-,N/A,,Overcast,210,2013-02-05 05:35:00
11:55 PM,17.6,15.8,93,29.52,7.0,SSW,13.8,-,N/A,,Overcast,200,2013-02-05 05:55:00